Weather History for Trinidad, CO

Change the Weather History Date:

Friday, August 23, 2013

  Actual Average Record
Temperature  
Mean Temperature 74 °F 71 °F  
Max Temperature 90 °F 85 °F 95 °F (1949)
Min Temperature 58 °F 56 °F 48 °F (1974)
Degree Days  
Heating Degree Days 0 0  
Month to date heating degree days 5 0  
Since 1 June heating degree days 26 42  
Since 1 July heating degree days 5 3  
Cooling Degree Days 9 6  
Month to date cooling degree days 175 163  
Year to date cooling degree days 822 598  
Since 1 June cooling degree days 759 570  
Growing Degree Days 23 (Base 50)    
Moisture  
Dew Point 46 °F    
Average Humidity 51    
Maximum Humidity 86    
Minimum Humidity 15    
Precipitation  
Precipitation 0.00 in 0.06 in 0.97 in (1951)
Month to date precipitation 1.92 1.76  
Year to date precipitation 7.31 9.99  
Sea Level Pressure  
Sea Level Pressure 29.92 in    
Wind  
Wind Speed 11 mph (SSW)    
Max Wind Speed 23 mph    
Max Gust Speed 28 mph    
Visibility 10 miles    
Events      
T = Trace of Precipitation, MM = Missing Value Source: NWS Daily Summary

Daily Weather History Graph

Daily Weather History Graph

Search for Another Location

Airport:

Trip Planner

Search our weather history database for the weather conditions in past years. The results will help you decide how hot, cold, wet, or windy it might be!

Date:

Astronomy

Aug. 23, 2013 Rise Set
Actual Time 6:20 AM MDT 7:38 PM MDT
Civil Twilight 5:53 AM MDT 8:05 PM MDT
Nautical Twilight 5:21 AM MDT 8:37 PM MDT
Astronomical Twilight 4:47 AM MDT 9:11 PM MDT
Moon 9:04 PM MDT (8/23) 9:13 AM MDT (8/23)
Length of Visible Light 14h 12m
Length of Day
13h 17m
Waning Gibbous, 91% of the Moon is Illuminated
Aug 23
Waning Gibbous
Aug 28
Last Quarter
Sep 5
New
Sep 12
First Quarter
Sep 19
Full

Hourly Weather History & Observations

Time (MDT) Temp. Dew Point Humidity Pressure Visibility Wind Dir Wind Speed Gust Speed Precip Events Conditions
12:54 AM 63.0 °F 57.0 °F 81% 30.03 in 10.0 mi NW 16.1 mph - N/A   Clear
1:54 AM 64.0 °F 57.0 °F 78% 30.03 in 10.0 mi WNW 11.5 mph - N/A   Mostly Cloudy
2:54 AM 64.0 °F 55.9 °F 75% 30.00 in 10.0 mi NW 3.5 mph - N/A   Overcast
3:54 AM 60.1 °F 55.0 °F 83% 30.01 in 10.0 mi WSW 4.6 mph - N/A   Clear
4:54 AM 59.0 °F 54.0 °F 83% 30.00 in 10.0 mi SW 4.6 mph - N/A   Partly Cloudy
5:54 AM 57.9 °F 53.1 °F 84% 30.01 in 10.0 mi WSW 5.8 mph - N/A   Clear
6:54 AM 59.0 °F 53.1 °F 81% 30.01 in 10.0 mi WSW 5.8 mph - N/A   Clear
7:54 AM 64.0 °F 55.0 °F 73% 30.01 in 10.0 mi WSW 10.4 mph - N/A   Clear
8:54 AM 70.0 °F 55.0 °F 59% 29.99 in 10.0 mi West 5.8 mph - N/A   Clear
9:54 AM 73.9 °F 54.0 °F 50% 29.98 in 10.0 mi Variable 3.5 mph - N/A   Clear
10:54 AM 81.0 °F 51.1 °F 35% 29.94 in 10.0 mi SE 4.6 mph - N/A   Clear
11:54 AM 89.1 °F 37.9 °F 16% 29.90 in 10.0 mi South 16.1 mph 20.7 mph N/A   Clear
12:54 PM 88.0 °F 37.0 °F 16% 29.90 in 10.0 mi SE 9.2 mph 23.0 mph N/A   Clear
1:54 PM 89.1 °F 37.0 °F 16% 29.88 in 10.0 mi SSW 12.7 mph 20.7 mph N/A   Clear
2:54 PM 88.0 °F 36.0 °F 16% 29.86 in 10.0 mi SSE 8.1 mph 19.6 mph N/A   Clear
3:54 PM 89.1 °F 35.1 °F 15% 29.83 in 10.0 mi South 13.8 mph 23.0 mph N/A   Clear
4:54 PM 89.1 °F 35.1 °F 15% 29.82 in 10.0 mi South 15.0 mph 20.7 mph N/A   Clear
5:54 PM 87.1 °F 37.9 °F 18% 29.82 in 10.0 mi South 20.7 mph 27.6 mph N/A   Clear
6:54 PM 82.9 °F 39.0 °F 21% 29.83 in 10.0 mi South 19.6 mph 27.6 mph N/A   Clear
7:54 PM 79.0 °F 37.9 °F 23% 29.83 in 10.0 mi South 15.0 mph 20.7 mph N/A   Clear
8:54 PM 79.0 °F 37.0 °F 22% 29.84 in 10.0 mi South 20.7 mph 27.6 mph N/A   Clear
9:54 PM 75.9 °F 46.0 °F 35% 29.86 in 10.0 mi SW 13.8 mph 20.7 mph N/A   Clear
10:54 PM 73.9 °F 48.9 °F 41% 29.84 in 10.0 mi SW 15.0 mph - N/A   Clear
11:54 PM 73.0 °F 48.9 °F 42% 29.83 in 10.0 mi WSW 15.0 mph - N/A   Clear